This demonstration page uses our WeatherBlox Daily Observations layout. Learn more.

Left ArrowRight Arrow

Hourly Observations for June 17, 2015

Temp ( °F °C ) Dew Point ( °F °C ) Humidity (%) Winds ( mph kmh ) Pressure ( in mb ) Visibility ( mi km ) Precip ( " mm )
4:53 am 04:53 Clear 46 7.8 40 4.4 79 79 Calm 29.93 1014 10 16 0.00 0.00
5:53 am 05:53 Sunny 48 8.9 41 5 77 77 NW 3 6 29.93 1014 10 16 0.00 0.00
6:53 am 06:53 Sunny 53 11.7 42 5.6 66 66 Calm 29.93 1014 10 16 0.00 0.00
7:53 am 07:53 Sunny 62 16.7 44 6.7 52 52 Calm 29.93 1014 10 16 0.00 0.00
8:53 am 08:53 Sunny 67 19.4 47 8.3 49 49 NE 6 9 29.93 1013 10 16 0.00 0.00
9:53 am 09:53 Sunny 71 21.7 47 8.3 42 42 E 6 9 29.93 1013 10 16 0.00 0.00
10:53 am 10:53 Sunny 75 23.9 46 7.8 36 36 VRB 5 7 29.91 1013 10 16 0.00 0.00
11:53 am 11:53 Sunny 80 26.7 48 8.9 33 33 NW 9 15 29.91 1013 10 16 0.00 0.00
12:53 pm 12:53 Sunny 77 25 44 6.7 31 31 NW 20 31 29.91 1013 10 16 0.00 0.00
1:53 pm 13:53 Mostly Cloudy 77 25 43 6.1 30 30 N 15 24 29.92 1013 10 16 0.00 0.00
2:53 pm 14:53 Mostly Cloudy 74 23.3 43 6.1 33 33 NE 12 19 29.93 1014 10 16 0.00 0.00
3:53 pm 15:53 Partly Cloudy 77 25 46 7.8 33 33 NE 15 24 29.95 1014 10 16 0.00 0.03
4:53 pm 16:53 Mostly Sunny 77 25 49 9.4 37 37 NNE 24 39 29.96 1015 10 16 0.00 0.00
5:53 pm 17:53 Sunny 73 22.8 48 8.9 41 41 NE 20 31 29.99 1016 10 16 0.00 0.00
6:53 pm 18:53 Sunny 70 21.1 48 8.9 46 46 ENE 10 17 29.99 1016 10 16 0.00 0.00
7:53 pm 19:53 Sunny 71 21.7 48 8.9 44 44 NE 14 22 29.99 1016 10 16 0.00 0.00
8:53 pm 20:53 Sunny 66 18.9 50 10 56 56 NE 15 24 30.00 1016 10 16 0.00 0.00
9:53 pm 21:53 Clear 62 16.7 50 10 65 65 NE 14 22 30.04 1017 10 16 0.00 0.00
10:53 pm 22:53 Clear 60 15.6 49 9.4 67 67 ENE 14 22 30.06 1018 10 16 0.00 0.00
11:53 pm 23:53 Mostly Cloudy 58 14.4 49 9.4 72 72 ENE 13 20 30.08 1019 10 16 0.00 0.00

Powered by AerisWeather